CCA5911 WSSS-ZBAD

Flight info

Callsign CCA5911
Flight time 5h 23m
Altitude 35000
Route VMR6A VMR M771 VISAT/N0496F360 M771 DUDIS/K0917F360 M771 DOSUT/N0497F360 M771 DULOP/N0494F370 M771 DUMOL/N0496F360 J103 BEKOL/K0920S1100 A461 YIN/K0915S1130 A461 BUBDA/K0917S1100 W56 REBIS/K0909S1130 W56 ORODO/K0891S1160 W62 KARVU/K0895S1130 W62 IGDID/K0889S1160 W62 TEKIL G212 BELAX BELAX6M
Aircraft B77W/H-SDE1E2E3FGHIJ2J3J4J5M1RWXY/LB1D1

Departure

Time 2026-04-17 04:45
Airport Singapore Changi Airport (WSSS)

Arrival

Time 2026-04-17 10:09
Airport Beijing Daxing International Airport (ZBAD)
Time Latitude Longitude Altitude Speed Heading
2026-04-17 04:10 1.35925 103.99209 35 ft 0 kts 292°
2026-04-17 04:29 1.35924 103.99211 35 ft 2 kts 292°
2026-04-17 04:30 1.35917 103.99228 35 ft 2 kts 291°
2026-04-17 04:30 1.35911 103.99244 33 ft 2 kts 304°
2026-04-17 04:30 1.35903 103.99251 31 ft 2 kts 331°
2026-04-17 04:30 1.35883 103.99258 32 ft 2 kts 352°
2026-04-17 04:31 1.35872 103.99259 32 ft 2 kts
2026-04-17 04:31 1.35862 103.99258 32 ft 0 kts 19°
2026-04-17 04:34 1.35904 103.99275 34 ft 5 kts 24°
2026-04-17 04:34 1.35934 103.99288 35 ft 5 kts 24°
2026-04-17 04:34 1.35963 103.99301 35 ft 5 kts 23°
2026-04-17 04:35 1.35990 103.99318 34 ft 5 kts 45°
2026-04-17 04:35 1.36002 103.99348 35 ft 5 kts 84°
2026-04-17 04:35 1.35996 103.99382 35 ft 5 kts 105°
2026-04-17 04:35 1.35984 103.99416 35 ft 5 kts 111°
2026-04-17 04:36 1.35972 103.99448 35 ft 5 kts 111°
2026-04-17 04:36 1.35958 103.99481 35 ft 5 kts 111°
2026-04-17 04:36 1.35944 103.99514 35 ft 5 kts 114°
2026-04-17 04:36 1.35933 103.99547 35 ft 5 kts 96°
2026-04-17 04:37 1.35947 103.99580 35 ft 5 kts 50°
2026-04-17 04:37 1.35976 103.99602 58 ft 5 kts 34°
2026-04-17 04:37 1.36007 103.99620 35 ft 5 kts 26°
2026-04-17 04:37 1.36041 103.99635 35 ft 5 kts 23°
2026-04-17 04:38 1.36074 103.99650 35 ft 5 kts 23°
2026-04-17 04:38 1.36108 103.99664 35 ft 5 kts 22°
2026-04-17 04:38 1.36142 103.99678 35 ft 5 kts 22°
2026-04-17 04:38 1.36176 103.99691 34 ft 5 kts 22°
2026-04-17 04:39 1.36210 103.99705 35 ft 5 kts 22°
2026-04-17 04:39 1.36244 103.99720 35 ft 5 kts 24°
2026-04-17 04:39 1.36278 103.99735 35 ft 5 kts 23°
2026-04-17 04:39 1.36312 103.99749 35 ft 5 kts 23°
2026-04-17 04:40 1.36345 103.99764 35 ft 5 kts 23°
2026-04-17 04:40 1.36379 103.99779 35 ft 5 kts 28°
2026-04-17 04:40 1.36399 103.99810 35 ft 5 kts 77°
2026-04-17 04:40 1.36399 103.99821 35 ft 0 kts 96°
2026-04-17 04:42 1.36398 103.99822 35 ft 1 kts 100°
2026-04-17 04:42 1.36370 103.99855 35 ft 9 kts 138°
2026-04-17 04:42 1.36309 103.99877 35 ft 9 kts 170°
2026-04-17 04:42 1.36243 103.99885 35 ft 9 kts 176°
2026-04-17 04:43 1.36181 103.99884 35 ft 9 kts 188°
2026-04-17 04:43 1.36126 103.99867 35 ft 7 kts 202°
2026-04-17 04:43 1.36125 103.99867 35 ft 0 kts 202°
2026-04-17 04:44 1.36118 103.99864 35 ft 7 kts 202°
2026-04-17 04:44 1.35912 103.99778 35 ft 67 kts 202°
2026-04-17 04:45 1.35257 103.99501 35 ft 134 kts 203°
2026-04-17 04:45 1.34218 103.99087 59 ft 181 kts 199°
2026-04-17 04:45 1.33054 103.98609 602 ft 185 kts 200°
2026-04-17 04:45 1.31821 103.98119 1046 ft 195 kts 200°
2026-04-17 04:46 1.30555 103.97634 1755 ft 192 kts 199°
2026-04-17 04:46 1.29304 103.97163 2366 ft 194 kts 199°
2026-04-17 04:46 1.28038 103.96690 2959 ft 194 kts 199°
2026-04-17 04:46 1.26763 103.96213 3448 ft 201 kts 199°
2026-04-17 04:47 1.25367 103.95694 3639 ft 227 kts 199°
2026-04-17 04:47 1.23798 103.95112 3817 ft 254 kts 199°
2026-04-17 04:47 1.22099 103.94485 3946 ft 263 kts 199°
2026-04-17 04:47 1.20371 103.93844 3969 ft 266 kts 199°
2026-04-17 04:48 1.18629 103.93190 3992 ft 268 kts 199°
2026-04-17 04:48 1.16906 103.92543 3991 ft 267 kts 199°
2026-04-17 04:48 1.15171 103.91893 3995 ft 266 kts 199°
2026-04-17 04:48 1.13435 103.91244 3992 ft 267 kts 199°
2026-04-17 04:49 1.11764 103.90619 3993 ft 266 kts 199°
2026-04-17 04:49 1.10079 103.89990 4012 ft 266 kts 199°
2026-04-17 04:49 1.08336 103.89339 4040 ft 267 kts 199°
2026-04-17 04:49 1.06890 103.88799 4051 ft 267 kts 199°
2026-04-17 04:50 1.05220 103.88174 4069 ft 266 kts 199°
2026-04-17 04:50 1.03466 103.87518 4084 ft 266 kts 199°
2026-04-17 04:50 1.01726 103.86868 4126 ft 267 kts 199°
2026-04-17 04:50 0.99983 103.86218 4088 ft 268 kts 199°
2026-04-17 04:51 0.98237 103.85565 4042 ft 268 kts 199°
2026-04-17 04:51 0.96493 103.84914 3998 ft 266 kts 199°
2026-04-17 04:51 0.94768 103.84279 3984 ft 261 kts 195°
2026-04-17 04:51 0.92998 103.84194 3985 ft 259 kts 162°
2026-04-17 04:52 0.91526 103.85133 3986 ft 265 kts 129°
2026-04-17 04:52 0.90761 103.86806 3993 ft 268 kts 101°
2026-04-17 04:52 0.90740 103.88661 3985 ft 269 kts 81°
2026-04-17 04:52 0.91271 103.90418 3982 ft 265 kts 69°
2026-04-17 04:53 0.92347 103.91887 3982 ft 267 kts 37°
2026-04-17 04:53 0.93956 103.92860 3997 ft 274 kts 31°
2026-04-17 04:53 0.95616 103.93846 3996 ft 279 kts 32°
2026-04-17 04:55 1.07355 104.00866 7751 ft 291 kts 32°
2026-04-17 04:55 1.09098 104.01905 8448 ft 294 kts 32°
2026-04-17 04:55 1.10876 104.02963 9112 ft 299 kts 32°
2026-04-17 04:56 1.12663 104.04029 9893 ft 299 kts 32°
2026-04-17 04:56 1.14464 104.05103 10503 ft 306 kts 32°
2026-04-17 04:56 1.16364 104.06237 10705 ft 330 kts 32°
2026-04-17 04:56 1.18326 104.07410 10955 ft 352 kts 32°
2026-04-17 04:57 1.20270 104.08575 11171 ft 372 kts 32°
2026-04-17 04:57 1.22480 104.09901 11386 ft 386 kts 31°
2026-04-17 04:57 1.24803 104.11296 11613 ft 392 kts 31°
2026-04-17 04:57 1.27148 104.12704 11780 ft 394 kts 32°
2026-04-17 04:58 1.29492 104.14112 11957 ft 393 kts 31°
2026-04-17 04:58 1.31834 104.15520 12138 ft 392 kts 31°
2026-04-17 04:58 1.34163 104.16920 12335 ft 392 kts 31°
2026-04-17 04:58 1.36362 104.18514 12540 ft 396 kts 48°
2026-04-17 04:59 1.37855 104.20817 13168 ft 394 kts 63°
2026-04-17 04:59 1.39399 104.23088 13549 ft 403 kts 44°
2026-04-17 04:59 1.41729 104.24635 14264 ft 406 kts 24°
2026-04-17 04:59 1.44424 104.25469 14920 ft 412 kts
2026-04-17 05:00 1.47304 104.25454 15575 ft 417 kts 349°
2026-04-17 05:00 1.50031 104.24492 16289 ft 419 kts 330°
2026-04-17 05:00 1.52364 104.22751 16881 ft 424 kts 312°
2026-04-17 05:00 1.54212 104.20457 17477 ft 426 kts 306°
2026-04-17 05:01 1.55961 104.18035 18065 ft 432 kts 304°
2026-04-17 05:01 1.57704 104.15577 18640 ft 436 kts 304°
2026-04-17 05:01 1.59437 104.13147 19199 ft 439 kts 305°
2026-04-17 05:01 1.61236 104.10662 19767 ft 443 kts 306°
2026-04-17 05:02 1.63066 104.08164 20312 ft 447 kts 306°
2026-04-17 05:02 1.64924 104.05646 20788 ft 453 kts 306°
2026-04-17 05:02 1.66810 104.03096 21279 ft 458 kts 306°
2026-04-17 05:02 1.68713 104.00524 21826 ft 461 kts 306°
2026-04-17 05:03 1.70624 103.97942 22424 ft 463 kts 306°
2026-04-17 05:03 1.72549 103.95343 22923 ft 466 kts 307°
2026-04-17 05:03 1.74682 103.93055 23200 ft 469 kts 323°
2026-04-17 05:03 1.77537 103.91442 23545 ft 474 kts 340°
2026-04-17 05:04 1.80720 103.90676 24003 ft 472 kts 356°
2026-04-17 05:04 1.83994 103.90514 24384 ft 473 kts 359°
2026-04-17 05:04 1.87304 103.90373 24740 ft 477 kts 358°
2026-04-17 05:04 1.90629 103.90211 25188 ft 479 kts 358°
2026-04-17 05:05 1.93961 103.90028 25636 ft 480 kts 358°
2026-04-17 05:05 1.97304 103.89828 26043 ft 483 kts 357°
2026-04-17 05:05 2.00666 103.89619 26429 ft 486 kts 357°
2026-04-17 05:05 2.04047 103.89404 26808 ft 489 kts 357°
2026-04-17 05:06 2.07455 103.89186 27175 ft 492 kts 357°
2026-04-17 05:06 2.10877 103.88967 27543 ft 494 kts 357°
2026-04-17 05:06 2.14324 103.88748 27915 ft 497 kts 357°
2026-04-17 05:06 2.17781 103.88529 28269 ft 499 kts 357°
2026-04-17 05:07 2.21248 103.88310 28609 ft 502 kts 357°
2026-04-17 05:07 2.24751 103.88089 28924 ft 504 kts 357°
2026-04-17 05:07 2.28257 103.87867 29210 ft 507 kts 357°
2026-04-17 05:07 2.31782 103.87644 29495 ft 509 kts 357°
2026-04-17 05:08 2.35321 103.87573 29759 ft 510 kts
2026-04-17 05:08 2.38822 103.88146 29975 ft 510 kts 16°
2026-04-17 05:08 2.42161 103.89306 30275 ft 508 kts 25°
2026-04-17 05:08 2.45259 103.91001 30613 ft 505 kts 33°
2026-04-17 05:09 2.48200 103.92890 30987 ft 503 kts 34°
2026-04-17 05:09 2.51151 103.94790 31323 ft 503 kts 33°
2026-04-17 05:09 2.54089 103.96668 31646 ft 502 kts 33°
2026-04-17 05:09 2.56997 103.98506 31988 ft 502 kts 33°
2026-04-17 05:10 2.60003 104.00388 32347 ft 501 kts 33°
2026-04-17 05:10 2.62963 104.02232 32625 ft 502 kts 33°
2026-04-17 05:10 2.65932 104.04077 32925 ft 501 kts 33°
2026-04-17 05:10 2.68896 104.05918 33265 ft 501 kts 33°
2026-04-17 05:11 2.70846 104.07129 33507 ft 500 kts 33°
2026-04-17 05:11 2.74795 104.09584 33944 ft 499 kts 33°
2026-04-17 05:11 2.77742 104.11417 34224 ft 499 kts 33°
2026-04-17 05:11 2.80683 104.13247 34516 ft 498 kts 33°
2026-04-17 05:12 2.83630 104.15082 34791 ft 497 kts 33°
2026-04-17 05:12 2.86576 104.16916 34842 ft 502 kts 33°
2026-04-17 05:12 2.92488 104.20596 34916 ft 498 kts 33°
2026-04-17 05:13 2.98358 104.24251 34914 ft 496 kts 32°
2026-04-17 05:13 3.04174 104.27873 34921 ft 496 kts 32°
2026-04-17 05:14 3.10052 104.31565 34920 ft 496 kts 33°
2026-04-17 05:14 3.15860 104.35229 34919 ft 497 kts 32°
2026-04-17 05:15 3.21737 104.38865 34918 ft 498 kts 32°
2026-04-17 05:15 3.27675 104.42533 34918 ft 498 kts 32°
2026-04-17 05:16 3.33537 104.46167 34919 ft 499 kts 32°
2026-04-17 05:16 3.39469 104.49849 34917 ft 498 kts 32°
2026-04-17 05:17 3.45358 104.53503 34915 ft 498 kts 32°
2026-04-17 05:17 3.51210 104.57138 34914 ft 497 kts 32°
2026-04-17 05:18 3.57083 104.60788 34911 ft 497 kts 32°
2026-04-17 05:18 3.62952 104.64438 34912 ft 497 kts 32°
2026-04-17 05:19 3.68828 104.68091 34915 ft 497 kts 32°
2026-04-17 05:19 3.73743 104.71149 34916 ft 497 kts 32°
2026-04-17 05:20 3.80578 104.75400 34914 ft 498 kts 32°
2026-04-17 05:20 3.85477 104.78448 34913 ft 498 kts 32°
2026-04-17 05:21 3.91369 104.82117 34915 ft 499 kts 32°
2026-04-17 05:21 3.97267 104.85792 34913 ft 499 kts 32°
2026-04-17 05:22 4.03164 104.89466 34911 ft 499 kts 32°
2026-04-17 05:22 4.09053 104.93137 34911 ft 499 kts 32°
2026-04-17 05:23 4.14947 104.96811 34907 ft 498 kts 32°
2026-04-17 05:23 4.20831 105.00480 34906 ft 498 kts 32°
2026-04-17 05:24 4.26709 105.04137 34909 ft 497 kts 32°
2026-04-17 05:24 4.32582 105.07787 34907 ft 497 kts 32°
2026-04-17 05:25 4.38455 105.11439 34907 ft 497 kts 32°
2026-04-17 05:25 4.44328 105.15095 34904 ft 497 kts 32°
2026-04-17 05:26 4.50207 105.18754 34905 ft 498 kts 32°
2026-04-17 05:26 4.56096 105.22421 34905 ft 499 kts 32°
2026-04-17 05:27 4.61988 105.26090 34904 ft 499 kts 32°
2026-04-17 05:27 4.67892 105.29768 34905 ft 499 kts 32°
2026-04-17 05:28 4.73787 105.33441 34903 ft 499 kts 32°
2026-04-17 05:28 4.79676 105.37111 34902 ft 498 kts 32°
2026-04-17 05:29 4.85535 105.40826 34905 ft 498 kts 33°
2026-04-17 05:29 4.91351 105.44628 34905 ft 499 kts 33°
2026-04-17 05:30 4.97157 105.48432 34905 ft 499 kts 33°
2026-04-17 05:30 5.02982 105.52232 34905 ft 499 kts 33°
2026-04-17 05:31 5.08812 105.56027 34907 ft 500 kts 33°
2026-04-17 05:31 5.14643 105.59822 34905 ft 499 kts 33°
2026-04-17 05:32 5.20457 105.63607 34901 ft 498 kts 33°
2026-04-17 05:32 5.26270 105.67394 34900 ft 497 kts 32°
2026-04-17 05:33 5.32069 105.71172 34904 ft 497 kts 32°
2026-04-17 05:33 5.37859 105.74945 34904 ft 496 kts 32°
2026-04-17 05:34 5.43650 105.78720 34902 ft 496 kts 32°
2026-04-17 05:34 5.49440 105.82494 34901 ft 496 kts 32°
2026-04-17 05:35 5.55232 105.86272 34902 ft 497 kts 32°
2026-04-17 05:35 5.61027 105.90051 34902 ft 497 kts 32°
2026-04-17 05:36 5.66827 105.93836 34899 ft 497 kts 32°
2026-04-17 05:36 5.72632 105.97624 34899 ft 498 kts 32°
2026-04-17 05:37 5.78397 106.01387 34898 ft 498 kts 32°
2026-04-17 05:37 5.84243 106.05204 34899 ft 498 kts 32°
2026-04-17 05:38 5.90012 106.08971 34901 ft 498 kts 32°
2026-04-17 05:38 5.95824 106.12768 34898 ft 498 kts 32°
2026-04-17 05:39 6.01623 106.16557 34898 ft 497 kts 32°
2026-04-17 05:39 6.07421 106.20347 34899 ft 497 kts 32°
2026-04-17 05:40 6.13220 106.24138 34896 ft 497 kts 32°
2026-04-17 05:40 6.19015 106.27927 34895 ft 497 kts 32°
2026-04-17 05:41 6.24807 106.31716 34897 ft 497 kts 32°
2026-04-17 05:41 6.30593 106.35501 34898 ft 497 kts 32°
2026-04-17 05:42 6.36381 106.39290 34895 ft 496 kts 32°
2026-04-17 05:42 6.42172 106.43080 34896 ft 496 kts 32°
2026-04-17 05:43 6.47960 106.46870 34896 ft 496 kts 32°
2026-04-17 05:43 6.53741 106.50657 34896 ft 496 kts 32°
2026-04-17 05:44 6.59532 106.54451 34898 ft 496 kts 32°
2026-04-17 05:44 6.65317 106.58243 34899 ft 497 kts 32°
2026-04-17 05:45 6.71108 106.62039 34899 ft 497 kts 32°
2026-04-17 05:45 6.76901 106.65838 34899 ft 497 kts 32°
2026-04-17 05:46 6.82694 106.69638 34896 ft 497 kts 32°
2026-04-17 05:46 6.88466 106.73426 34900 ft 497 kts 32°
2026-04-17 05:47 6.94266 106.77233 34897 ft 498 kts 31°
2026-04-17 05:47 7.00064 106.81040 34900 ft 498 kts 31°
2026-04-17 05:48 7.05610 106.84685 34899 ft 498 kts 32°
2026-04-17 05:48 7.11440 106.88521 34899 ft 499 kts 32°
2026-04-17 05:49 7.17245 106.92343 34895 ft 499 kts 32°
2026-04-17 05:49 7.21463 106.95121 34897 ft 499 kts 32°
2026-04-17 05:50 7.27234 106.98923 34900 ft 499 kts 32°
2026-04-17 05:50 7.33042 107.02750 34894 ft 499 kts 31°
2026-04-17 05:51 7.38855 107.06582 34897 ft 499 kts 31°
2026-04-17 05:51 7.44662 107.10410 34897 ft 499 kts 31°
2026-04-17 05:52 7.50477 107.14246 34893 ft 499 kts 31°
2026-04-17 05:52 7.55894 107.17819 34896 ft 499 kts 31°
2026-04-17 05:53 7.61682 107.21639 34895 ft 499 kts 31°
2026-04-17 05:53 7.67487 107.25472 34890 ft 499 kts 31°
2026-04-17 05:54 7.73288 107.29303 34893 ft 499 kts 31°
2026-04-17 05:54 7.79093 107.33138 34892 ft 499 kts 31°
2026-04-17 05:55 7.84895 107.36972 34893 ft 499 kts 31°
2026-04-17 05:55 7.89954 107.40316 34892 ft 499 kts 31°
2026-04-17 05:56 7.95629 107.44069 34892 ft 499 kts 31°
2026-04-17 05:56 8.01429 107.47906 34893 ft 498 kts 31°
2026-04-17 05:57 8.06958 107.51565 34891 ft 498 kts 31°
2026-04-17 05:57 8.12755 107.55401 34893 ft 498 kts 31°
2026-04-17 05:58 8.18539 107.59232 34891 ft 497 kts 31°
2026-04-17 05:59 8.26625 107.64588 34892 ft 497 kts 31°
2026-04-17 05:59 8.32409 107.68421 34895 ft 497 kts 31°
2026-04-17 06:00 8.38078 107.72180 34898 ft 498 kts 31°
2026-04-17 06:00 8.43868 107.76020 34894 ft 498 kts 31°
2026-04-17 06:01 8.49202 107.79558 34895 ft 498 kts 31°
2026-04-17 06:01 8.54816 107.83284 34891 ft 498 kts 31°
2026-04-17 06:02 8.60608 107.87130 34895 ft 498 kts 31°
2026-04-17 06:02 8.66404 107.90979 34895 ft 498 kts 31°
2026-04-17 06:03 8.71220 107.94179 34895 ft 499 kts 31°
2026-04-17 06:03 8.77422 107.98301 34896 ft 499 kts 31°
2026-04-17 06:04 8.82051 108.01378 34898 ft 499 kts 31°
2026-04-17 06:04 8.87851 108.05236 34893 ft 500 kts 31°
2026-04-17 06:05 8.93295 108.08858 34893 ft 500 kts 31°
2026-04-17 06:05 8.99288 108.12848 34893 ft 500 kts 31°
2026-04-17 06:06 9.04120 108.16065 34891 ft 500 kts 31°
2026-04-17 06:06 9.09932 108.19936 34897 ft 500 kts 31°
2026-04-17 06:07 9.15746 108.23810 34901 ft 501 kts 31°
2026-04-17 06:07 9.21223 108.27462 34896 ft 501 kts 31°
2026-04-17 06:08 9.27045 108.31344 34894 ft 501 kts 31°
2026-04-17 06:08 9.32864 108.35227 34896 ft 501 kts 31°
2026-04-17 06:09 9.38643 108.39085 34895 ft 501 kts 31°
2026-04-17 06:09 9.44462 108.42971 34899 ft 501 kts 31°
2026-04-17 06:10 9.50283 108.46855 34894 ft 501 kts 31°
2026-04-17 06:10 9.56109 108.50738 34899 ft 501 kts 31°
2026-04-17 06:11 9.61943 108.54629 34896 ft 502 kts 31°
2026-04-17 06:11 9.67769 108.58518 34896 ft 502 kts 31°
2026-04-17 06:12 9.73597 108.62410 34895 ft 502 kts 31°
2026-04-17 06:12 9.79430 108.66308 34893 ft 502 kts 31°
2026-04-17 06:13 9.85271 108.70212 34893 ft 502 kts 31°
2026-04-17 06:13 9.91097 108.74109 34893 ft 502 kts 31°
2026-04-17 06:14 9.96931 108.78013 34893 ft 502 kts 31°
2026-04-17 06:14 10.02767 108.81917 34895 ft 502 kts 31°
2026-04-17 06:15 10.08600 108.85818 34896 ft 502 kts 31°
2026-04-17 06:15 10.12983 108.88751 34896 ft 502 kts 31°
2026-04-17 06:16 10.18816 108.92656 34894 ft 503 kts 31°
2026-04-17 06:16 10.24655 108.96569 34893 ft 503 kts 32°
2026-04-17 06:17 10.30489 109.00479 34898 ft 503 kts 32°
2026-04-17 06:17 10.36329 109.04396 34896 ft 503 kts 32°
2026-04-17 06:18 10.42162 109.08309 34893 ft 502 kts 32°
2026-04-17 06:18 10.47988 109.12219 34896 ft 502 kts 32°
2026-04-17 06:19 10.53816 109.16133 34898 ft 502 kts 32°
2026-04-17 06:19 10.59596 109.20016 34895 ft 501 kts 32°
2026-04-17 06:20 10.65417 109.23929 34896 ft 501 kts 32°
2026-04-17 06:20 10.71233 109.27840 34896 ft 501 kts 32°
2026-04-17 06:21 10.77049 109.31753 34897 ft 501 kts 32°
2026-04-17 06:21 10.82857 109.35662 34896 ft 501 kts 32°
2026-04-17 06:22 10.88669 109.39576 34901 ft 501 kts 32°
2026-04-17 06:22 10.94484 109.43494 34898 ft 501 kts 32°
2026-04-17 06:23 11.00291 109.47408 34894 ft 501 kts 32°
2026-04-17 06:23 11.06103 109.51329 34897 ft 501 kts 32°
2026-04-17 06:24 11.11919 109.55250 34902 ft 501 kts 31°
2026-04-17 06:24 11.17763 109.59110 34899 ft 501 kts 31°
2026-04-17 06:25 11.23637 109.62958 34894 ft 501 kts 31°
2026-04-17 06:25 11.29498 109.66808 34900 ft 501 kts 31°
2026-04-17 06:26 11.35360 109.70670 34897 ft 502 kts 31°
2026-04-17 06:26 11.41179 109.74510 34893 ft 502 kts 31°
2026-04-17 06:27 11.47035 109.78375 34898 ft 502 kts 31°
2026-04-17 06:27 11.52890 109.82241 34895 ft 502 kts 31°
2026-04-17 06:28 11.58753 109.86114 34894 ft 502 kts 31°
2026-04-17 06:28 11.64605 109.89981 34897 ft 502 kts 31°
2026-04-17 06:29 11.70465 109.93856 34895 ft 502 kts 31°
2026-04-17 06:29 11.76320 109.97730 34893 ft 502 kts 31°
2026-04-17 06:30 11.82178 110.01607 34894 ft 502 kts 31°
2026-04-17 06:30 11.88032 110.05485 34893 ft 502 kts 31°
2026-04-17 06:31 11.93892 110.09367 34899 ft 502 kts 31°
2026-04-17 06:31 11.99747 110.13249 34896 ft 502 kts 31°
2026-04-17 06:32 12.05598 110.17130 34894 ft 502 kts 31°
2026-04-17 06:32 12.11455 110.21018 34896 ft 502 kts 31°
2026-04-17 06:33 12.17306 110.24903 34900 ft 502 kts 31°
2026-04-17 06:33 12.23167 110.28797 34898 ft 502 kts 31°
2026-04-17 06:34 12.29021 110.32690 34891 ft 502 kts 32°
2026-04-17 06:34 12.34868 110.36579 34899 ft 502 kts 31°
2026-04-17 06:35 12.40690 110.40522 34896 ft 502 kts 33°
2026-04-17 06:35 12.46458 110.44574 34896 ft 503 kts 33°
2026-04-17 06:36 12.52221 110.48627 34898 ft 503 kts 33°
2026-04-17 06:36 12.57995 110.52665 34897 ft 503 kts 33°
2026-04-17 06:37 12.63770 110.56701 34895 ft 502 kts 33°
2026-04-17 06:37 12.69544 110.60739 34896 ft 503 kts 33°
2026-04-17 06:38 12.75316 110.64779 34895 ft 503 kts 33°
2026-04-17 06:38 12.81089 110.68817 34894 ft 503 kts 33°
2026-04-17 06:39 12.86868 110.72861 34895 ft 503 kts 33°
2026-04-17 06:39 12.92648 110.76909 34897 ft 503 kts 33°
2026-04-17 06:40 12.98426 110.80960 34894 ft 503 kts 33°
2026-04-17 06:40 13.04201 110.85011 34892 ft 503 kts 33°
2026-04-17 06:41 13.09978 110.89065 34897 ft 503 kts 33°
2026-04-17 06:41 13.15718 110.93096 34895 ft 503 kts 33°
2026-04-17 06:42 13.21529 110.97178 34900 ft 503 kts 33°
2026-04-17 06:42 13.27271 111.01216 34898 ft 503 kts 33°
2026-04-17 06:43 13.33084 111.05304 34903 ft 503 kts 33°
2026-04-17 06:43 13.38822 111.09343 34897 ft 504 kts 33°
2026-04-17 06:44 13.44604 111.13415 34897 ft 504 kts 33°
2026-04-17 06:44 13.50386 111.17489 34902 ft 504 kts 33°
2026-04-17 06:45 13.56160 111.21561 34900 ft 503 kts 33°
2026-04-17 06:45 13.61924 111.25628 34896 ft 503 kts 33°
2026-04-17 06:46 13.67690 111.29699 34896 ft 503 kts 33°
2026-04-17 06:46 13.73461 111.33775 34900 ft 503 kts 33°
2026-04-17 06:47 13.79234 111.37856 34902 ft 504 kts 33°
2026-04-17 06:47 13.85006 111.41939 34900 ft 504 kts 33°
2026-04-17 06:48 13.90788 111.46032 34901 ft 504 kts 33°
2026-04-17 06:48 13.96570 111.50126 34889 ft 505 kts 33°
2026-04-17 06:49 14.02364 111.54214 34913 ft 505 kts 32°
2026-04-17 06:49 14.08181 111.58295 34904 ft 506 kts 32°
2026-04-17 06:50 14.14003 111.62384 34908 ft 506 kts 32°
2026-04-17 06:50 14.19816 111.66475 34907 ft 506 kts 32°
2026-04-17 06:51 14.24657 111.69884 34903 ft 507 kts 32°
2026-04-17 06:51 14.31454 111.74675 34901 ft 506 kts 32°
2026-04-17 06:52 14.36288 111.78083 34905 ft 506 kts 32°
2026-04-17 06:52 14.42093 111.82179 34901 ft 506 kts 32°
2026-04-17 06:53 14.47897 111.86277 34905 ft 505 kts 32°
2026-04-17 06:53 14.53693 111.90372 34903 ft 505 kts 32°
2026-04-17 06:54 14.59478 111.94470 34891 ft 505 kts 33°
2026-04-17 06:54 14.65258 111.98598 34908 ft 505 kts 33°
2026-04-17 06:55 14.71037 112.02723 34910 ft 505 kts 32°
2026-04-17 06:55 14.76846 112.06814 34910 ft 505 kts 32°
2026-04-17 06:56 14.82676 112.10895 34906 ft 506 kts 32°
2026-04-17 06:56 14.88496 112.14976 34894 ft 506 kts 32°
2026-04-17 06:57 14.94318 112.19069 34895 ft 506 kts 32°
2026-04-17 06:57 15.00104 112.23143 34907 ft 506 kts 32°
2026-04-17 06:58 15.05925 112.27244 34897 ft 506 kts 32°
2026-04-17 06:58 15.11787 112.31376 34894 ft 506 kts 32°
2026-04-17 06:59 15.17563 112.35450 34894 ft 506 kts 32°
2026-04-17 06:59 15.23388 112.39562 34898 ft 506 kts 32°
2026-04-17 07:00 15.29204 112.43669 34899 ft 507 kts 32°
2026-04-17 07:00 15.35033 112.47788 34897 ft 507 kts 32°
2026-04-17 07:01 15.40857 112.51908 34901 ft 507 kts 32°
2026-04-17 07:01 15.46674 112.56025 34896 ft 506 kts 32°
2026-04-17 07:02 15.52492 112.60145 34898 ft 507 kts 32°
2026-04-17 07:02 15.58316 112.64273 34901 ft 507 kts 32°
2026-04-17 07:03 15.64147 112.68408 34898 ft 508 kts 32°
2026-04-17 07:03 15.69984 112.72551 34900 ft 508 kts 32°
2026-04-17 07:04 15.75816 112.76693 34897 ft 508 kts 32°
2026-04-17 07:04 15.81658 112.80845 34895 ft 509 kts 32°
2026-04-17 07:05 15.87491 112.84994 34897 ft 509 kts 32°
2026-04-17 07:05 15.93331 112.89151 34899 ft 509 kts 32°
2026-04-17 07:06 15.99170 112.93309 34898 ft 509 kts 32°
2026-04-17 07:06 16.05004 112.97468 34899 ft 509 kts 32°
2026-04-17 07:07 16.10838 113.01629 34900 ft 509 kts 32°
2026-04-17 07:07 16.16681 113.05799 34899 ft 510 kts 32°
2026-04-17 07:08 16.22534 113.09981 34896 ft 510 kts 32°
2026-04-17 07:08 16.28378 113.14159 34900 ft 510 kts 32°
2026-04-17 07:09 16.34196 113.18320 34905 ft 510 kts 32°
2026-04-17 07:09 16.40045 113.22508 34910 ft 510 kts 32°
2026-04-17 07:10 16.45899 113.26702 34904 ft 511 kts 32°
2026-04-17 07:10 16.51749 113.30897 34903 ft 510 kts 32°
2026-04-17 07:11 16.57639 113.35122 34902 ft 510 kts 32°
2026-04-17 07:11 16.63444 113.39291 34904 ft 510 kts 32°
2026-04-17 07:12 16.69286 113.43489 34911 ft 510 kts 32°
2026-04-17 07:12 16.75124 113.47688 34910 ft 510 kts 32°
2026-04-17 07:13 16.80965 113.51892 34903 ft 510 kts 32°
2026-04-17 07:13 16.86797 113.56092 34907 ft 509 kts 32°
2026-04-17 07:14 16.92629 113.60297 34909 ft 509 kts 32°
2026-04-17 07:14 16.98460 113.64504 34910 ft 509 kts 32°
2026-04-17 07:15 17.04290 113.68711 34909 ft 509 kts 32°
2026-04-17 07:15 17.10133 113.72877 34909 ft 509 kts 31°
2026-04-17 07:16 17.15992 113.77033 34907 ft 509 kts 31°
2026-04-17 07:16 17.21850 113.81198 34911 ft 509 kts 31°
2026-04-17 07:17 17.27705 113.85372 34913 ft 509 kts 31°
2026-04-17 07:17 17.36494 113.91645 34912 ft 510 kts 31°
2026-04-17 07:18 17.42350 113.95829 34910 ft 510 kts 31°
2026-04-17 07:18 17.48211 114.00019 34910 ft 510 kts 31°
2026-04-17 07:19 17.54029 114.04183 34910 ft 510 kts 31°
2026-04-17 07:19 17.59885 114.08376 34908 ft 510 kts 32°
2026-04-17 07:20 17.65748 114.12578 34911 ft 510 kts 32°
2026-04-17 07:20 17.71606 114.16779 34910 ft 511 kts 32°
2026-04-17 07:21 17.77473 114.20991 34909 ft 511 kts 32°
2026-04-17 07:21 17.83337 114.25204 34910 ft 511 kts 32°
2026-04-17 07:22 17.89203 114.29422 34915 ft 511 kts 31°
2026-04-17 07:22 17.95062 114.33638 34909 ft 511 kts 32°
2026-04-17 07:23 18.00923 114.37860 34912 ft 511 kts 31°
2026-04-17 07:23 18.06784 114.42084 34914 ft 511 kts 32°
2026-04-17 07:24 18.12640 114.46310 34914 ft 511 kts 32°
2026-04-17 07:24 18.18505 114.50543 34917 ft 510 kts 31°
2026-04-17 07:25 18.21578 114.52362 34907 ft 504 kts 19°
2026-04-17 07:25 18.24911 114.53411 34917 ft 498 kts
2026-04-17 07:25 18.28330 114.53786 34917 ft 493 kts 356°
2026-04-17 07:25 18.31724 114.53480 34919 ft 488 kts 349°
2026-04-17 07:26 18.38468 114.52516 34918 ft 490 kts 349°
2026-04-17 07:26 18.45251 114.51601 34928 ft 493 kts 349°
2026-04-17 07:27 18.52073 114.50734 34917 ft 494 kts 350°
2026-04-17 07:27 18.58907 114.49880 34915 ft 494 kts 350°
2026-04-17 07:28 18.65730 114.49025 34911 ft 494 kts 350°
2026-04-17 07:28 18.72547 114.48167 34911 ft 493 kts 349°
2026-04-17 07:29 18.79352 114.47309 34923 ft 492 kts 349°
2026-04-17 07:29 18.86143 114.46451 34918 ft 492 kts 349°
2026-04-17 07:30 18.92938 114.45593 34914 ft 491 kts 349°
2026-04-17 07:30 18.99725 114.44735 34918 ft 491 kts 349°
2026-04-17 07:31 19.06549 114.44038 34914 ft 493 kts 352°
2026-04-17 07:31 19.13344 114.43499 34919 ft 494 kts 352°
2026-04-17 07:32 19.20243 114.42937 34916 ft 494 kts 352°
2026-04-17 07:32 19.27094 114.42348 34913 ft 495 kts 351°
2026-04-17 07:33 19.33959 114.41747 34914 ft 495 kts 351°
2026-04-17 07:33 19.40581 114.41167 34920 ft 495 kts 351°
2026-04-17 07:34 19.47442 114.40567 34910 ft 496 kts 351°
2026-04-17 07:34 19.54321 114.39966 34911 ft 496 kts 351°
2026-04-17 07:35 19.61202 114.39364 34927 ft 496 kts 351°
2026-04-17 07:35 19.68030 114.38766 34918 ft 496 kts 351°
2026-04-17 07:36 19.74906 114.38163 34919 ft 496 kts 351°
2026-04-17 07:36 19.81785 114.37559 34914 ft 496 kts 351°
2026-04-17 07:37 19.88669 114.36957 34914 ft 496 kts 351°
2026-04-17 07:37 19.95543 114.36357 34915 ft 496 kts 351°
2026-04-17 07:38 20.01252 114.35858 34917 ft 495 kts 351°
2026-04-17 07:38 20.08123 114.35256 34920 ft 496 kts 351°
2026-04-17 07:39 20.16151 114.34556 34938 ft 493 kts 350°
2026-04-17 07:39 20.21842 114.34048 34917 ft 495 kts 351°
2026-04-17 07:40 20.28705 114.33448 34922 ft 496 kts 351°
2026-04-17 07:40 20.35590 114.32845 34919 ft 496 kts 351°
2026-04-17 07:41 20.42470 114.32241 34919 ft 497 kts 351°
2026-04-17 07:41 20.49364 114.31634 34918 ft 497 kts 351°
2026-04-17 07:42 20.56271 114.31025 34915 ft 497 kts 351°
2026-04-17 07:42 20.63159 114.30418 34915 ft 497 kts 351°
2026-04-17 07:43 20.70049 114.29810 34921 ft 497 kts 351°
2026-04-17 07:43 20.76935 114.29201 34916 ft 496 kts 351°
2026-04-17 07:44 20.83807 114.28594 34918 ft 495 kts 351°
2026-04-17 07:44 20.90681 114.28001 34917 ft 495 kts 351°
2026-04-17 07:45 20.97547 114.27410 34928 ft 495 kts 351°
2026-04-17 07:45 21.04401 114.26818 34913 ft 494 kts 351°
2026-04-17 07:46 21.11204 114.26210 34919 ft 493 kts 350°
2026-04-17 07:46 21.18086 114.25582 34916 ft 493 kts 350°
2026-04-17 07:47 21.24929 114.24960 34916 ft 493 kts 350°
2026-04-17 07:47 21.31758 114.24340 34920 ft 493 kts 350°
2026-04-17 07:48 21.38552 114.23729 34913 ft 493 kts 350°
2026-04-17 07:48 21.45379 114.23118 34915 ft 492 kts 350°
2026-04-17 07:49 21.52247 114.22502 34916 ft 492 kts 350°
2026-04-17 07:49 21.59024 114.21892 34923 ft 492 kts 350°
2026-04-17 07:50 21.65852 114.21277 34916 ft 493 kts 350°
2026-04-17 07:50 21.72686 114.20664 34915 ft 493 kts 350°
2026-04-17 07:51 21.79517 114.20052 34913 ft 493 kts 350°
2026-04-17 07:51 21.86356 114.19437 34912 ft 493 kts 350°
2026-04-17 07:52 21.93196 114.18822 34920 ft 494 kts 350°
2026-04-17 07:52 22.00052 114.18205 34921 ft 495 kts 350°
2026-04-17 07:53 22.12552 114.17078 34917 ft 495 kts 350°
2026-04-17 07:53 22.26275 114.15839 34928 ft 495 kts 350°
2026-04-17 07:54 22.39997 114.14597 34930 ft 495 kts 350°
2026-04-17 07:54 22.53684 114.12878 34890 ft 490 kts 340°
2026-04-17 07:55 22.66088 114.07338 34934 ft 483 kts 329°
2026-04-17 07:55 22.78243 114.01031 34932 ft 485 kts 330°
2026-04-17 07:56 23.28590 113.75794 35768 ft 498 kts 336°
2026-04-17 07:56 24.02476 113.46932 35045 ft 489 kts 334°
2026-04-17 07:56 24.28859 113.39828 35770 ft 556 kts 346°
2026-04-17 07:57 24.31722 113.39701 36001 ft 551 kts 359°
2026-04-17 07:57 24.35478 113.40276 36185 ft 536 kts
2026-04-17 07:57 24.39112 113.41097 35855 ft 532 kts
2026-04-17 07:57 24.42635 113.42055 35645 ft 524 kts
2026-04-17 07:58 24.46263 113.42593 35391 ft 516 kts 358°
2026-04-17 07:58 24.49534 113.42783 35250 ft 511 kts 355°
2026-04-17 07:58 24.56418 113.42925 35109 ft 512 kts 354°
2026-04-17 07:59 24.63572 113.43058 35034 ft 516 kts 355°
2026-04-17 07:59 24.70772 113.43194 35054 ft 519 kts 354°
2026-04-17 08:00 24.77998 113.43353 35069 ft 521 kts 354°
2026-04-17 08:00 24.85266 113.43518 35044 ft 522 kts 354°
2026-04-17 08:01 24.92525 113.43684 35054 ft 521 kts 354°
2026-04-17 08:01 24.99769 113.43868 35052 ft 520 kts 354°
2026-04-17 08:02 25.06991 113.44074 35055 ft 519 kts 354°
2026-04-17 08:02 25.14207 113.44287 35054 ft 518 kts 354°
2026-04-17 08:03 25.21411 113.44502 35049 ft 517 kts 354°
2026-04-17 08:03 25.28613 113.44717 35076 ft 518 kts 354°
2026-04-17 08:04 25.35836 113.44929 35066 ft 521 kts 354°
2026-04-17 08:04 25.43088 113.45138 35080 ft 522 kts 354°
2026-04-17 08:05 25.57041 113.45519 35090 ft 523 kts 354°
2026-04-17 08:06 25.64329 113.45718 35089 ft 524 kts 354°
2026-04-17 08:06 25.71516 113.45908 35088 ft 524 kts 354°
2026-04-17 08:07 25.78803 113.46103 35116 ft 524 kts 354°
2026-04-17 08:07 25.85480 113.46302 35119 ft 526 kts 354°
2026-04-17 08:08 25.92785 113.46191 35107 ft 523 kts 349°
2026-04-17 08:08 26.00071 113.45772 35096 ft 525 kts 349°
2026-04-17 08:09 26.07369 113.45433 35111 ft 527 kts 350°
2026-04-17 08:09 26.14716 113.45177 35101 ft 528 kts 350°
2026-04-17 08:10 26.22074 113.44927 35098 ft 528 kts 350°
2026-04-17 08:10 26.29413 113.44675 35101 ft 528 kts 350°
2026-04-17 08:11 26.36747 113.44417 35099 ft 527 kts 350°
2026-04-17 08:11 26.44084 113.44157 35089 ft 527 kts 350°
2026-04-17 08:12 26.51413 113.43900 35095 ft 527 kts 350°
2026-04-17 08:12 26.58675 113.43630 35091 ft 527 kts 350°
2026-04-17 08:13 26.65996 113.43351 35103 ft 528 kts 349°
2026-04-17 08:14 26.77033 113.42928 35069 ft 530 kts 349°
2026-04-17 08:14 26.84410 113.42745 35161 ft 528 kts 349°
2026-04-17 08:15 26.91777 113.42406 35109 ft 532 kts 348°
2026-04-17 08:15 26.99207 113.42072 35081 ft 536 kts 349°
2026-04-17 08:16 27.06639 113.41793 35082 ft 534 kts 349°
2026-04-17 08:16 27.14115 113.41511 35092 ft 540 kts 349°
2026-04-17 08:17 27.21547 113.41230 35122 ft 540 kts 349°
2026-04-17 08:17 27.29068 113.40944 35079 ft 540 kts 349°
2026-04-17 08:18 27.36581 113.40733 35075 ft 541 kts 352°
2026-04-17 08:18 27.44116 113.40928 35077 ft 542 kts 353°
2026-04-17 08:19 27.51589 113.41150 35085 ft 540 kts 352°
2026-04-17 08:19 27.59080 113.41290 35061 ft 537 kts 352°
2026-04-17 08:20 27.66547 113.41459 35077 ft 539 kts 354°
2026-04-17 08:20 27.74049 113.42097 35063 ft 541 kts 356°
2026-04-17 08:21 27.81553 113.42798 35079 ft 540 kts 356°
2026-04-17 08:21 27.89049 113.43458 35057 ft 541 kts 356°
2026-04-17 08:22 27.96554 113.44125 35057 ft 541 kts 356°
2026-04-17 08:22 28.04072 113.44790 35100 ft 542 kts 356°
2026-04-17 08:23 28.11595 113.45508 35078 ft 540 kts 355°
2026-04-17 08:23 28.19070 113.45966 35077 ft 537 kts 354°
2026-04-17 08:24 28.26539 113.46452 35064 ft 537 kts 355°
2026-04-17 08:24 28.33990 113.46992 35079 ft 536 kts 355°
2026-04-17 08:25 28.41408 113.47516 35062 ft 533 kts 355°
2026-04-17 08:25 28.48800 113.48053 35078 ft 531 kts 355°
2026-04-17 08:26 28.56160 113.48595 35116 ft 530 kts 355°
2026-04-17 08:26 28.63516 113.49133 35080 ft 529 kts 355°
2026-04-17 08:27 28.70863 113.49672 35066 ft 528 kts 355°
2026-04-17 08:27 28.78153 113.50207 35071 ft 528 kts 355°
2026-04-17 08:28 28.85519 113.50732 35089 ft 527 kts 355°
2026-04-17 08:28 28.92771 113.51249 35059 ft 522 kts 354°
2026-04-17 08:29 28.99989 113.51770 35067 ft 519 kts 354°
2026-04-17 08:29 29.07200 113.52279 35076 ft 519 kts 354°
2026-04-17 08:30 29.14409 113.52792 35073 ft 520 kts 354°
2026-04-17 08:30 29.21643 113.53313 35063 ft 521 kts 355°
2026-04-17 08:31 29.28875 113.53842 35074 ft 520 kts 355°
2026-04-17 08:31 29.36099 113.54438 35113 ft 522 kts 355°
2026-04-17 08:32 29.43353 113.55085 35072 ft 524 kts 355°
2026-04-17 08:32 29.50614 113.55739 35083 ft 523 kts 355°
2026-04-17 08:33 29.57866 113.56378 35078 ft 523 kts 355°
2026-04-17 08:33 29.65130 113.57012 35094 ft 523 kts 355°
2026-04-17 08:34 29.72385 113.57649 35081 ft 523 kts 355°
2026-04-17 08:34 29.79640 113.58289 35066 ft 522 kts 355°
2026-04-17 08:35 29.86882 113.58928 35103 ft 522 kts 355°
2026-04-17 08:35 29.94091 113.60078 35076 ft 534 kts
2026-04-17 08:36 30.01266 113.62775 35069 ft 545 kts 16°
2026-04-17 08:36 30.08227 113.66311 35072 ft 546 kts 17°
2026-04-17 08:37 30.15120 113.69852 35081 ft 546 kts 17°
2026-04-17 08:37 30.22079 113.73357 35071 ft 545 kts 17°
2026-04-17 08:38 30.29082 113.76853 35055 ft 544 kts 16°
2026-04-17 08:38 30.35984 113.80304 35112 ft 544 kts 17°
2026-04-17 08:39 30.42939 113.83793 35064 ft 545 kts 17°
2026-04-17 08:39 30.49894 113.87290 35064 ft 544 kts 17°
2026-04-17 08:40 30.56837 113.90787 35070 ft 544 kts 17°
2026-04-17 08:40 30.63789 113.94293 35062 ft 544 kts 17°
2026-04-17 08:41 30.70750 113.97679 35060 ft 542 kts 16°
2026-04-17 08:41 30.77596 114.01439 35065 ft 545 kts 20°
2026-04-17 08:42 30.84408 114.05247 35094 ft 543 kts 19°
2026-04-17 08:42 30.91260 114.08932 35053 ft 542 kts 18°
2026-04-17 08:43 30.98102 114.12636 35060 ft 542 kts 19°
2026-04-17 08:43 31.04937 114.16362 35067 ft 542 kts 19°
2026-04-17 08:44 31.11773 114.20080 35069 ft 543 kts 19°
2026-04-17 08:44 31.18619 114.23802 35057 ft 543 kts 19°
2026-04-17 08:45 31.25443 114.27546 35081 ft 540 kts 19°
2026-04-17 08:45 31.32304 114.31108 35050 ft 535 kts 12°
2026-04-17 08:46 31.39417 114.33152 35059 ft 521 kts
2026-04-17 08:46 31.46505 114.33660 35072 ft 511 kts 352°
2026-04-17 08:47 31.53673 114.33765 35057 ft 512 kts 353°
2026-04-17 08:47 31.60748 114.33939 35056 ft 514 kts 353°
2026-04-17 08:48 31.67926 114.34162 35059 ft 515 kts 353°
2026-04-17 08:48 31.75078 114.34369 35074 ft 514 kts 353°
2026-04-17 08:49 31.82245 114.34515 35066 ft 515 kts 353°
2026-04-17 08:49 31.89413 114.34722 35055 ft 515 kts 354°
2026-04-17 08:50 31.96572 114.34967 35053 ft 514 kts 354°
2026-04-17 08:50 32.03719 114.35203 35085 ft 513 kts 354°
2026-04-17 08:51 32.09663 114.35390 35054 ft 514 kts 354°
2026-04-17 08:51 32.16806 114.35616 35055 ft 514 kts 354°
2026-04-17 08:52 32.23961 114.35844 35052 ft 514 kts 354°
2026-04-17 08:52 32.31114 114.36238 35065 ft 517 kts 356°
2026-04-17 08:53 32.38296 114.36960 35055 ft 518 kts 357°
2026-04-17 08:53 32.45474 114.37665 35053 ft 517 kts 357°
2026-04-17 08:54 32.52645 114.38309 35072 ft 517 kts 357°
2026-04-17 08:54 32.59766 114.38941 35057 ft 516 kts 356°
2026-04-17 08:55 32.66965 114.39588 35057 ft 515 kts 356°
2026-04-17 08:55 32.74057 114.40249 35055 ft 515 kts 357°
2026-04-17 08:56 32.81191 114.40922 35064 ft 514 kts 357°
2026-04-17 08:56 32.88326 114.41593 35055 ft 514 kts 357°
2026-04-17 08:57 32.95454 114.42262 35055 ft 514 kts 357°
2026-04-17 08:57 33.02581 114.42932 35074 ft 514 kts 357°
2026-04-17 08:58 33.09704 114.43603 35061 ft 514 kts 357°
2026-04-17 08:58 33.16829 114.44277 35055 ft 513 kts 357°
2026-04-17 08:59 33.23954 114.44950 35057 ft 513 kts 357°
2026-04-17 08:59 33.31081 114.45625 35067 ft 514 kts 357°
2026-04-17 09:00 33.38213 114.46299 35063 ft 515 kts 357°
2026-04-17 09:00 33.45356 114.46974 35056 ft 515 kts 357°
2026-04-17 09:01 33.52507 114.47654 35062 ft 516 kts 356°
2026-04-17 09:01 33.59668 114.48335 35059 ft 516 kts 356°
2026-04-17 09:02 33.66771 114.48997 35062 ft 517 kts 356°
2026-04-17 09:02 33.73957 114.49647 35075 ft 517 kts 356°
2026-04-17 09:03 33.81133 114.50301 35058 ft 517 kts 356°
2026-04-17 09:03 33.88305 114.50971 35057 ft 517 kts 357°
2026-04-17 09:04 33.95471 114.51656 35055 ft 517 kts 357°
2026-04-17 09:04 34.02632 114.52340 35055 ft 516 kts 357°
2026-04-17 09:05 34.09799 114.53023 35056 ft 516 kts 357°
2026-04-17 09:05 34.16949 114.53705 35057 ft 516 kts 357°
2026-04-17 09:06 34.24109 114.54389 35060 ft 516 kts 357°
2026-04-17 09:06 34.31267 114.55075 35055 ft 516 kts 357°
2026-04-17 09:07 34.38421 114.55762 35059 ft 515 kts 357°
2026-04-17 09:07 34.45571 114.56449 35065 ft 515 kts 357°
2026-04-17 09:08 34.52717 114.57131 35057 ft 515 kts 357°
2026-04-17 09:08 34.59857 114.57808 35057 ft 514 kts 357°
2026-04-17 09:09 34.66990 114.58486 35077 ft 514 kts 357°
2026-04-17 09:09 34.74119 114.59166 35052 ft 513 kts 357°
2026-04-17 09:10 34.84783 114.60186 35053 ft 512 kts 357°
2026-04-17 09:10 34.91876 114.60866 35062 ft 510 kts 358°
2026-04-17 09:11 34.98933 114.61544 35043 ft 507 kts 358°
2026-04-17 09:11 35.05948 114.62219 35044 ft 505 kts 358°
2026-04-17 09:12 35.12947 114.62892 35071 ft 503 kts 359°
2026-04-17 09:12 35.19903 114.63562 35043 ft 500 kts 359°
2026-04-17 09:13 35.26828 114.64232 35041 ft 498 kts 359°
2026-04-17 09:13 35.33726 114.64899 35057 ft 497 kts 359°
2026-04-17 09:14 35.40569 114.65561 35036 ft 496 kts 359°
2026-04-17 09:14 35.47452 114.66229 35048 ft 496 kts 359°
2026-04-17 09:15 35.54336 114.66898 35039 ft 497 kts 359°
2026-04-17 09:15 35.61229 114.67570 35042 ft 497 kts 359°
2026-04-17 09:16 35.68126 114.68244 35035 ft 497 kts 359°
2026-04-17 09:16 35.75013 114.68918 35032 ft 496 kts 359°
2026-04-17 09:17 35.81892 114.69591 35045 ft 496 kts 359°
2026-04-17 09:17 35.88771 114.70267 35029 ft 495 kts 359°
2026-04-17 09:18 35.95626 114.70941 35022 ft 494 kts 359°
2026-04-17 09:18 36.02474 114.71615 35046 ft 493 kts 359°
2026-04-17 09:19 36.09310 114.72289 35029 ft 493 kts 359°
2026-04-17 09:19 36.16148 114.72952 35025 ft 492 kts 359°
2026-04-17 09:20 36.22975 114.73611 35023 ft 492 kts 359°
2026-04-17 09:20 36.29804 114.74274 35017 ft 492 kts 359°
2026-04-17 09:21 36.36636 114.74917 35020 ft 492 kts 358°
2026-04-17 09:21 36.43429 114.74838 35023 ft 487 kts 352°
2026-04-17 09:22 36.50207 114.74459 35025 ft 487 kts 352°
2026-04-17 09:22 36.56986 114.74123 35008 ft 488 kts 353°
2026-04-17 09:23 36.63758 114.73822 35006 ft 487 kts 353°
2026-04-17 09:23 36.70537 114.73522 35020 ft 487 kts 353°
2026-04-17 09:24 36.77325 114.73942 35016 ft 494 kts
2026-04-17 09:24 36.83864 114.76549 35002 ft 502 kts 20°
2026-04-17 09:25 36.90183 114.80306 35017 ft 503 kts 21°
2026-04-17 09:25 36.96475 114.84089 35000 ft 501 kts 21°
2026-04-17 09:26 37.02763 114.87796 34994 ft 499 kts 21°
2026-04-17 09:26 37.09039 114.91463 35005 ft 497 kts 21°
2026-04-17 09:27 37.15294 114.95120 34995 ft 496 kts 21°
2026-04-17 09:27 37.21544 114.98786 34990 ft 495 kts 21°
2026-04-17 09:28 37.27783 115.02455 35008 ft 495 kts 20°
2026-04-17 09:28 37.34028 115.06134 34992 ft 496 kts 21°
2026-04-17 09:29 37.40279 115.09824 34997 ft 496 kts 21°
2026-04-17 09:29 37.46527 115.13519 34989 ft 497 kts 21°
2026-04-17 09:30 37.52780 115.17221 34995 ft 496 kts 20°
2026-04-17 09:30 37.59014 115.20914 34987 ft 495 kts 20°
2026-04-17 09:31 37.65239 115.24609 34987 ft 494 kts 20°
2026-04-17 09:31 37.71368 115.28260 34752 ft 478 kts 20°
2026-04-17 09:32 37.74352 115.30038 34368 ft 470 kts 20°
2026-04-17 09:32 37.77293 115.31749 34005 ft 461 kts 17°
2026-04-17 09:32 37.80319 115.32914 33591 ft 447 kts
2026-04-17 09:32 37.83356 115.33420 33189 ft 435 kts 359°
2026-04-17 09:33 37.86302 115.33389 32785 ft 424 kts 350°
2026-04-17 09:33 37.89198 115.32958 32398 ft 416 kts 348°
2026-04-17 09:33 37.92059 115.32506 32001 ft 411 kts 349°
2026-04-17 09:33 37.94874 115.32074 31617 ft 405 kts 349°
2026-04-17 09:34 37.97650 115.31664 31227 ft 400 kts 349°
2026-04-17 09:34 38.00405 115.31266 30848 ft 395 kts 350°
2026-04-17 09:34 38.03122 115.30879 30472 ft 390 kts 350°
2026-04-17 09:34 38.05803 115.30499 30104 ft 386 kts 350°
2026-04-17 09:35 38.08452 115.30123 29711 ft 381 kts 350°
2026-04-17 09:35 38.11075 115.29746 29288 ft 377 kts 350°
2026-04-17 09:35 38.13651 115.29370 28854 ft 372 kts 350°
2026-04-17 09:35 38.16198 115.28997 28635 ft 363 kts 350°
2026-04-17 09:36 38.18689 115.28631 28301 ft 360 kts 350°
2026-04-17 09:36 38.21170 115.28265 27827 ft 360 kts 350°
2026-04-17 09:36 38.23649 115.27899 27388 ft 358 kts 351°
2026-04-17 09:36 38.26124 115.27535 26945 ft 356 kts 351°
2026-04-17 09:37 38.28579 115.27174 26504 ft 354 kts 351°
2026-04-17 09:37 38.31012 115.26816 26078 ft 351 kts 351°
2026-04-17 09:37 38.32617 115.26580 25791 ft 350 kts 351°
2026-04-17 09:37 38.35844 115.26104 25234 ft 347 kts 351°
2026-04-17 09:38 38.38241 115.25751 24825 ft 346 kts 351°
2026-04-17 09:38 38.39815 115.25519 24569 ft 344 kts 352°
2026-04-17 09:38 38.42190 115.25169 24156 ft 343 kts 352°
2026-04-17 09:38 38.45356 115.24701 23632 ft 341 kts 352°
2026-04-17 09:39 38.46915 115.24471 23360 ft 339 kts 352°
2026-04-17 09:39 38.49254 115.24125 22897 ft 338 kts 352°
2026-04-17 09:39 38.51584 115.23781 22445 ft 336 kts 352°
2026-04-17 09:39 38.53927 115.23434 22001 ft 335 kts 352°
2026-04-17 09:40 38.56204 115.23103 21568 ft 331 kts 354°
2026-04-17 09:40 38.58488 115.23343 21107 ft 333 kts 14°
2026-04-17 09:40 38.60577 115.24634 20692 ft 337 kts 32°
2026-04-17 09:40 38.62331 115.26618 20273 ft 341 kts 46°
2026-04-17 09:41 38.63567 115.29217 19851 ft 345 kts 60°
2026-04-17 09:41 38.64567 115.32002 19460 ft 344 kts 62°
2026-04-17 09:41 38.65547 115.34796 19062 ft 345 kts 62°
2026-04-17 09:41 38.66546 115.37614 18675 ft 350 kts 61°
2026-04-17 09:42 38.67572 115.40468 18289 ft 355 kts 61°
2026-04-17 09:42 38.68609 115.43326 17854 ft 357 kts 61°
2026-04-17 09:42 38.69659 115.46200 17429 ft 356 kts 61°
2026-04-17 09:42 38.70710 115.49071 16981 ft 354 kts 61°
2026-04-17 09:43 38.71755 115.51926 16548 ft 352 kts 61°
2026-04-17 09:43 38.72864 115.54700 16132 ft 348 kts 57°
2026-04-17 09:43 38.74079 115.57357 15730 ft 345 kts 55°
2026-04-17 09:43 38.75323 115.59975 15319 ft 342 kts 55°
2026-04-17 09:44 38.76562 115.62577 14923 ft 340 kts 55°
2026-04-17 09:44 38.77783 115.65162 14549 ft 339 kts 55°
2026-04-17 09:44 38.78992 115.67742 14162 ft 337 kts 56°
2026-04-17 09:44 38.80191 115.70318 13798 ft 336 kts 56°
2026-04-17 09:45 38.81368 115.72856 13386 ft 335 kts 56°
2026-04-17 09:45 38.82568 115.75453 12985 ft 334 kts 56°
2026-04-17 09:45 38.83732 115.77977 12577 ft 332 kts 56°
2026-04-17 09:45 38.84879 115.80474 12197 ft 318 kts 56°
2026-04-17 09:46 38.85998 115.82909 11860 ft 316 kts 56°
2026-04-17 09:46 38.87108 115.85323 11508 ft 314 kts 56°
2026-04-17 09:46 38.88228 115.87760 11159 ft 313 kts 56°
2026-04-17 09:46 38.89329 115.90159 10825 ft 311 kts 56°
2026-04-17 09:47 38.90411 115.92519 10476 ft 310 kts 56°
2026-04-17 09:47 38.91517 115.94932 10142 ft 309 kts 56°
2026-04-17 09:47 38.92590 115.97276 9836 ft 307 kts 56°
2026-04-17 09:47 38.93669 115.99635 9459 ft 306 kts 56°
2026-04-17 09:48 38.94760 116.02020 9101 ft 305 kts 57°
2026-04-17 09:48 38.95821 116.04343 8760 ft 304 kts 57°
2026-04-17 09:48 38.96889 116.06682 8397 ft 303 kts 57°
2026-04-17 09:48 38.97939 116.08986 8018 ft 291 kts 57°
2026-04-17 09:49 38.98941 116.11188 7764 ft 280 kts 58°
2026-04-17 09:49 38.99933 116.13364 7634 ft 287 kts 58°
2026-04-17 09:49 39.00995 116.15551 7510 ft 285 kts 48°
2026-04-17 09:49 39.02541 116.17067 7336 ft 279 kts 18°
2026-04-17 09:50 39.04417 116.17530 7212 ft 274 kts 356°
2026-04-17 09:50 39.06305 116.17320 7084 ft 272 kts 350°
2026-04-17 09:50 39.08184 116.17022 6942 ft 273 kts 350°
2026-04-17 09:50 39.10074 116.16714 6809 ft 274 kts 349°
2026-04-17 09:51 39.11968 116.16408 6655 ft 274 kts 350°
2026-04-17 09:51 39.13855 116.16107 6523 ft 274 kts 350°
2026-04-17 09:51 39.15738 116.15812 6364 ft 270 kts 349°
2026-04-17 09:51 39.17581 116.15526 6202 ft 264 kts 349°
2026-04-17 09:52 39.19380 116.15249 6028 ft 259 kts 349°
2026-04-17 09:52 39.21179 116.14972 5892 ft 260 kts 350°
2026-04-17 09:52 39.22975 116.14696 5756 ft 261 kts 349°
2026-04-17 09:52 39.24802 116.14414 5612 ft 267 kts 349°
2026-04-17 09:53 39.26666 116.14127 5489 ft 272 kts 350°
2026-04-17 09:53 39.28554 116.13838 5336 ft 273 kts 350°
2026-04-17 09:53 39.30437 116.13549 5192 ft 273 kts 350°
2026-04-17 09:53 39.32322 116.13260 5041 ft 272 kts 350°
2026-04-17 09:54 39.34200 116.12973 4898 ft 272 kts 350°
2026-04-17 09:54 39.36077 116.12686 4762 ft 272 kts 349°
2026-04-17 09:54 39.37953 116.12398 4633 ft 271 kts 349°
2026-04-17 09:54 39.39811 116.12111 4582 ft 267 kts 349°
2026-04-17 09:55 39.41659 116.11826 4568 ft 268 kts 349°
2026-04-17 09:55 39.43507 116.11540 4549 ft 268 kts 349°
2026-04-17 09:55 39.45357 116.11255 4522 ft 267 kts 349°
2026-04-17 09:55 39.47195 116.10972 4493 ft 266 kts 349°
2026-04-17 09:56 39.49032 116.10689 4465 ft 265 kts 349°
2026-04-17 09:56 39.50869 116.10407 4432 ft 264 kts 349°
2026-04-17 09:56 39.52665 116.10133 4400 ft 263 kts 350°
2026-04-17 09:56 39.54481 116.09857 4376 ft 263 kts 349°
2026-04-17 09:57 39.56273 116.09583 4350 ft 262 kts 349°
2026-04-17 09:57 39.58113 116.09303 4332 ft 263 kts 350°
2026-04-17 09:57 39.59928 116.09024 4318 ft 264 kts 349°
2026-04-17 09:57 39.61749 116.08746 4303 ft 265 kts 349°
2026-04-17 09:58 39.63591 116.08464 4282 ft 266 kts 349°
2026-04-17 09:58 39.65432 116.08182 4261 ft 266 kts 349°
2026-04-17 09:58 39.67271 116.07900 4224 ft 266 kts 350°
2026-04-17 09:58 39.69107 116.07619 4199 ft 266 kts 350°
2026-04-17 09:59 39.70941 116.07338 4178 ft 265 kts 350°
2026-04-17 09:59 39.72762 116.07064 4144 ft 263 kts 352°
2026-04-17 09:59 39.74550 116.07336 4050 ft 260 kts 22°
2026-04-17 09:59 39.75951 116.08742 3961 ft 255 kts 54°
2026-04-17 10:00 39.76706 116.10791 3918 ft 250 kts 79°
2026-04-17 10:00 39.76989 116.12987 3914 ft 245 kts 85°
2026-04-17 10:00 39.77176 116.15182 3905 ft 243 kts 86°
2026-04-17 10:00 39.77362 116.17332 3892 ft 234 kts 86°
2026-04-17 10:01 39.77549 116.19391 3874 ft 227 kts 86°
2026-04-17 10:01 39.77733 116.21396 3887 ft 222 kts 86°
2026-04-17 10:01 39.77912 116.23385 3891 ft 221 kts 86°
2026-04-17 10:01 39.78086 116.25367 3897 ft 219 kts 87°
2026-04-17 10:02 39.78261 116.27336 3879 ft 219 kts 86°
2026-04-17 10:02 39.78436 116.29306 3895 ft 220 kts 87°
2026-04-17 10:02 39.78598 116.31273 3896 ft 216 kts 93°
2026-04-17 10:02 39.78249 116.33063 3879 ft 200 kts 132°
2026-04-17 10:03 39.77171 116.34122 3907 ft 195 kts 168°
2026-04-17 10:03 39.75865 116.34568 3942 ft 195 kts 170°
2026-04-17 10:03 39.74544 116.34981 3949 ft 193 kts 173°
2026-04-17 10:03 39.73235 116.35278 3898 ft 187 kts 175°
2026-04-17 10:04 39.71962 116.35508 3886 ft 183 kts 176°
2026-04-17 10:04 39.70692 116.35717 3760 ft 187 kts 177°
2026-04-17 10:04 39.69420 116.35921 3519 ft 186 kts 177°
2026-04-17 10:04 39.68159 116.36123 3290 ft 176 kts 177°
2026-04-17 10:05 39.66992 116.36311 3055 ft 162 kts 177°
2026-04-17 10:05 39.65901 116.36484 2849 ft 157 kts 177°
2026-04-17 10:05 39.64808 116.36656 2650 ft 158 kts 176°
2026-04-17 10:05 39.63731 116.36826 2471 ft 156 kts 176°
2026-04-17 10:06 39.62652 116.36998 2246 ft 155 kts 176°
2026-04-17 10:06 39.61602 116.37165 2038 ft 150 kts 176°
2026-04-17 10:06 39.60590 116.37326 1848 ft 140 kts 175°
2026-04-17 10:06 39.59646 116.37476 1680 ft 136 kts 175°
2026-04-17 10:07 39.58701 116.37626 1481 ft 138 kts 176°
2026-04-17 10:07 39.57742 116.37778 1300 ft 139 kts 176°
2026-04-17 10:07 39.56778 116.37930 1121 ft 140 kts 175°
2026-04-17 10:07 39.55811 116.38084 930 ft 142 kts 174°
2026-04-17 10:08 39.54821 116.38241 738 ft 143 kts 174°
2026-04-17 10:08 39.53824 116.38398 575 ft 144 kts 175°
2026-04-17 10:08 39.52825 116.38560 372 ft 145 kts 173°
2026-04-17 10:08 39.51832 116.38723 159 ft 143 kts 175°
2026-04-17 10:09 39.50869 116.38871 106 ft 126 kts 173°
2026-04-17 10:09 39.50184 116.38977 100 ft 73 kts 173°
2026-04-17 10:09 39.49834 116.39031 103 ft 38 kts 173°
2026-04-17 10:09 39.49596 116.39069 106 ft 30 kts 173°
2026-04-17 10:10 39.49460 116.39108 104 ft 17 kts 159°
2026-04-17 10:10 39.49361 116.39168 103 ft 8 kts 150°
2026-04-17 10:10 39.49305 116.39214 102 ft 12 kts 147°
2026-04-17 10:11 39.49132 116.39365 97 ft 17 kts 146°
2026-04-17 10:11 39.49036 116.39450 96 ft 16 kts 140°
2026-04-17 10:11 39.49012 116.39586 92 ft 16 kts 85°
2026-04-17 10:11 39.49025 116.39734 95 ft 16 kts 83°
2026-04-17 10:12 39.49039 116.39880 98 ft 16 kts 83°
2026-04-17 10:12 39.49053 116.40027 105 ft 16 kts 82°
2026-04-17 10:12 39.49068 116.40179 99 ft 10 kts 83°
2026-04-17 10:12 39.49076 116.40273 95 ft 13 kts 83°
2026-04-17 10:13 39.49126 116.40362 92 ft 14 kts
2026-04-17 10:13 39.49226 116.40360 92 ft 15 kts 357°
2026-04-17 10:13 39.49326 116.40344 93 ft 15 kts 351°
2026-04-17 10:13 39.49426 116.40325 92 ft 15 kts 352°
2026-04-17 10:14 39.49528 116.40311 93 ft 15 kts 355°
2026-04-17 10:14 39.49631 116.40294 93 ft 15 kts 352°
2026-04-17 10:14 39.49734 116.40277 92 ft 15 kts 353°
2026-04-17 10:14 39.49841 116.40260 91 ft 15 kts 353°
2026-04-17 10:15 39.49945 116.40244 93 ft 15 kts 353°
2026-04-17 10:15 39.50051 116.40229 93 ft 15 kts 353°
2026-04-17 10:15 39.50156 116.40213 94 ft 15 kts 353°
2026-04-17 10:15 39.50261 116.40196 93 ft 15 kts 353°
2026-04-17 10:16 39.50368 116.40179 93 ft 15 kts 353°
2026-04-17 10:16 39.50472 116.40162 93 ft 15 kts 353°
2026-04-17 10:16 39.50576 116.40146 92 ft 11 kts 353°
2026-04-17 10:16 39.50634 116.40190 93 ft 11 kts 70°
2026-04-17 10:17 39.50668 116.40277 93 ft 10 kts 60°
2026-04-17 10:17 39.50693 116.40344 94 ft 3 kts 76°
2026-04-17 10:17 39.50695 116.40376 93 ft 0 kts 95°
2026-04-17 10:18 39.50695 116.40382 93 ft 0 kts 97°